Sparta, WI

4:01 PM CST on February 24, 2018 (GMT -0600)
Sparta-Fort McCoy

Weather History for KCMY - July, 2013

Change the Weather History Date:

Monday, July 29, 2013

  Actual Average Record
Temperature  
Mean Temperature 60 °F -  
Max Temperature 77 °F 81 °F 94 °F (1961)
Min Temperature 44 °F 56 °F 44 °F (1965)
Degree Days  
Heating Degree Days 4    
Growing Degree Days 10 (Base 50)    
Moisture  
Dew Point 51 °F    
Average Humidity 73    
Maximum Humidity 99    
Minimum Humidity 38    
Precipitation  
Precipitation 0.00 in - - ()
Sea Level Pressure  
Sea Level Pressure 30.12 in    
Wind  
Wind Speed 1 mph (SSW)    
Max Wind Speed 8 mph    
Max Gust Speed -    
Visibility 9 miles    
Events Fog    
Averages and records for this station are not official NWS values.
T = Trace of Precipitation, MM = Missing Value Source: NWS Daily Summary

Daily Weather History Graph

Daily Weather History Graph

Search for Another Location

Airport or City:

Trip Planner

Search our weather history database for the weather conditions in past years. The results will help you decide how hot, cold, wet, or windy it might be!

Date:

Astronomy

Jul. 29, 2013 Rise Set
Actual Time 5:48 AM CDT 8:29 PM CDT
Civil Twilight 5:15 AM CDT 9:03 PM CDT
Nautical Twilight 4:33 AM CDT 9:44 PM CDT
Astronomical Twilight 3:44 AM CDT 10:32 PM CDT
Moon No Moon Rise 1:48 PM CDT (7/29)
Length of Visible Light 15h 48m
Length of Day
14h 41m
Waning Gibbous, 50% of the Moon is Illuminated
Jul 29
Waning Gibbous
Jul 29
Last Quarter
Aug 6
New
Aug 14
First Quarter
Aug 20
Full

Hourly Weather History & Observations

Time (CDT) Temp. Dew Point Humidity Pressure Visibility Wind Dir Wind Speed Gust Speed Precip Events Conditions
12:15 AM 52.2 °F 50.7 °F 95% 30.07 in 10.0 mi Calm Calm - N/A   Unknown
12:35 AM 51.8 °F 50.4 °F 95% 30.07 in 10.0 mi Calm Calm - N/A   Unknown
12:55 AM 50.4 °F 49.5 °F 97% 30.07 in 10.0 mi Calm Calm - N/A   Unknown
1:15 AM 50.2 °F 49.3 °F 97% 30.08 in 10.0 mi Calm Calm - N/A   Unknown
1:35 AM 49.1 °F 47.7 °F 95% 30.08 in 10.0 mi Calm Calm - N/A   Unknown
1:55 AM 49.1 °F 48.0 °F 96% 30.08 in 10.0 mi Calm Calm - N/A   Unknown
2:15 AM 48.4 °F 47.7 °F 97% 30.08 in 10.0 mi Calm Calm - N/A   Unknown
2:55 AM 47.1 °F 46.0 °F 96% 30.08 in 10.0 mi Calm Calm - N/A   Unknown
3:15 AM 46.6 °F 45.7 °F 97% 30.09 in 10.0 mi Calm Calm - N/A   Unknown
3:35 AM 46.0 °F 45.3 °F 97% 30.09 in 10.0 mi Calm Calm - N/A   Unknown
3:55 AM 45.5 °F 45.1 °F 99% 30.09 in 10.0 mi Calm Calm - N/A   Unknown
4:15 AM 44.6 °F 43.9 °F 97% 30.09 in 10.0 mi Calm Calm - N/A   Unknown
4:35 AM 44.8 °F 44.4 °F 99% 30.09 in 10.0 mi Calm Calm - N/A   Unknown
4:55 AM 46.4 °F 45.9 °F 98% 30.10 in 5.0 mi Calm Calm - N/A   Mist
5:15 AM 46.4 °F 46.2 °F 99% 30.10 in 0.2 mi Calm Calm - N/A Fog Fog
5:35 AM 47.8 °F 47.5 °F 99% 30.11 in 0.2 mi Calm Calm - N/A Fog Fog
5:55 AM 47.8 °F 47.5 °F 99% 30.11 in 0.2 mi Calm Calm - N/A Fog Fog
6:15 AM 47.7 °F 47.3 °F 99% 30.11 in 0.2 mi Calm Calm - N/A Fog Fog
6:35 AM 48.2 °F 48.0 °F 99% 30.12 in 0.2 mi Calm Calm - N/A Fog Fog
6:55 AM 48.9 °F 48.6 °F 99% 30.13 in 0.2 mi Calm Calm - N/A Fog Fog
7:15 AM 49.8 °F 49.5 °F 99% 30.14 in 0.2 mi Calm Calm - N/A Fog Fog
7:35 AM 51.3 °F 50.9 °F 99% 30.13 in 0.2 mi Calm Calm - N/A Fog Fog
7:55 AM 52.0 °F 51.4 °F 98% 30.13 in 1.5 mi East 3.5 mph - N/A   Mist
8:15 AM 54.0 °F 53.6 °F 99% 30.14 in 10.0 mi Calm Calm - N/A   Unknown
8:55 AM 57.0 °F 55.2 °F 94% 30.15 in 10.0 mi Calm Calm - N/A   Unknown
9:15 AM 62.6 °F 51.4 °F 67% 30.15 in 10.0 mi Calm Calm - N/A   Unknown
10:15 AM 66.7 °F 48.0 °F 51% 30.15 in 10.0 mi NNW 5.8 mph - N/A   Unknown
10:35 AM 67.6 °F 48.9 °F 51% 30.15 in 10.0 mi Calm Calm - N/A   Unknown
11:15 AM 69.6 °F 48.0 °F 46% 30.16 in 10.0 mi NNW 8.1 mph - N/A   Unknown
11:35 AM 70.5 °F 47.7 °F 44% 30.16 in 10.0 mi North 3.5 mph - N/A   Unknown
12:15 PM 71.4 °F 48.0 °F 43% 30.15 in 10.0 mi NW 4.6 mph - N/A   Unknown
12:35 PM 71.2 °F 48.6 °F 45% 30.15 in 10.0 mi NNW 3.5 mph - N/A   Unknown
12:55 PM 73.0 °F 48.7 °F 42% 30.15 in 10.0 mi North 4.6 mph - N/A   Unknown
1:15 PM 73.2 °F 48.2 °F 41% 30.15 in 10.0 mi SE 4.6 mph - N/A   Unknown
1:35 PM 73.0 °F 48.0 °F 41% 30.14 in 10.0 mi Calm Calm - N/A   Unknown
1:55 PM 75.0 °F 49.1 °F 40% 30.14 in 10.0 mi Calm Calm - N/A   Unknown
2:15 PM 74.3 °F 49.5 °F 41% 30.14 in 10.0 mi SSW 4.6 mph - N/A   Unknown
2:55 PM 75.0 °F 48.9 °F 40% 30.13 in 10.0 mi Calm Calm - N/A   Unknown
3:15 PM 75.7 °F 48.9 °F 39% 30.12 in 10.0 mi Calm Calm - N/A   Unknown
3:35 PM 76.8 °F 49.6 °F 38% 30.12 in 10.0 mi ESE 3.5 mph - N/A   Unknown
3:55 PM 76.3 °F 49.8 °F 39% 30.12 in 10.0 mi SSE 6.9 mph - N/A   Unknown
4:15 PM 76.1 °F 49.6 °F 39% 30.12 in 10.0 mi SSW 3.5 mph - N/A   Unknown
4:35 PM 76.5 °F 51.3 °F 41% 30.12 in 10.0 mi SSW 4.6 mph - N/A   Unknown
5:15 PM 77.2 °F 51.6 °F 41% 30.12 in 10.0 mi South 3.5 mph - N/A   Unknown
5:35 PM 76.5 °F 52.9 °F 44% 30.12 in 10.0 mi South 5.8 mph - N/A   Unknown
5:55 PM 76.1 °F 52.7 °F 44% 30.13 in 10.0 mi SSW 4.6 mph - N/A   Unknown
6:15 PM 75.4 °F 51.8 °F 44% 30.12 in 10.0 mi South 6.9 mph - N/A   Unknown
6:35 PM 74.3 °F 52.5 °F 46% 30.12 in 10.0 mi SSW 3.5 mph - N/A   Unknown
6:55 PM 73.4 °F 53.2 °F 49% 30.12 in 10.0 mi Calm Calm - N/A   Unknown
7:15 PM 72.0 °F 53.6 °F 52% 30.13 in 10.0 mi Calm Calm - N/A   Unknown
7:35 PM 70.5 °F 54.7 °F 57% 30.13 in 10.0 mi Calm Calm - N/A   Unknown
7:55 PM 68.4 °F 56.3 °F 65% 30.13 in 10.0 mi Calm Calm - N/A   Unknown
8:15 PM 66.0 °F 57.0 °F 73% 30.13 in 10.0 mi Calm Calm - N/A   Unknown
8:35 PM 64.0 °F 57.2 °F 78% 30.14 in 10.0 mi Calm Calm - N/A   Unknown
8:55 PM 63.5 °F 56.7 °F 78% 30.14 in 10.0 mi Calm Calm - N/A   Unknown
9:15 PM 63.3 °F 56.5 °F 78% 30.14 in 10.0 mi Calm Calm - N/A   Unknown
9:35 PM 61.9 °F 57.0 °F 84% 30.15 in 10.0 mi Calm Calm - N/A   Unknown
9:55 PM 61.3 °F 57.2 °F 86% 30.15 in 10.0 mi Calm Calm - N/A   Unknown
10:15 PM 59.7 °F 57.0 °F 91% 30.15 in 10.0 mi Calm Calm - N/A   Unknown
10:35 PM 58.5 °F 56.3 °F 93% 30.15 in 10.0 mi Calm Calm - N/A   Unknown
10:55 PM 57.2 °F 55.0 °F 92% 30.15 in 10.0 mi Calm Calm - N/A   Unknown
11:15 PM 56.7 °F 54.1 °F 91% 30.15 in 10.0 mi Calm Calm - N/A   Unknown
11:35 PM 56.3 °F 54.5 °F 94% 30.15 in 10.0 mi Calm Calm - N/A   Unknown
11:55 PM 55.8 °F 54.5 °F 96% 30.15 in 10.0 mi Calm Calm - N/A   Unknown